Location: Unspecified
(49.2170°N, 0.0000°E)
Time: 09:56:54
(UTC+00:00)

Transit 2A - Pass Details

Date: 20 June 2019
Orbit: 594 x 964 km, 66.7° (Epoch: 19 July)

Event Time Altitude Azimuth Distance (km) Brightness Sun altitude
Rises 06:48:55 0° 320° (NW) 3,578 9.2 25.1°
Reaches altitude 10° 06:52:18 10° 337° (NNW) 2,580 8.6 25.7°
Maximum altitude 06:56:32 20° 22° (NNE) 1,909 8.6 26.3°
Drops below altitude 10° 07:00:31 10° 68° (ENE) 2,405 10.1 27.0°
Sets 07:03:32 0° 86° (E) 3,259 10.6 27.5°
